Location: Puketoi
(40.5833°S, 176.0167°E)
Time: 01:09:01
(UTC+00:00)

COSMOS 2455 - Pass Details

Date: 06 October 2023
Orbit: 902 x 907 km, 67.1° (Epoch: 03 December)

Event Time Altitude Azimuth Distance (km) Brightness Sun altitude
Exits shadow 11:26:08 - 252° (WSW) 2,933 5.8 -43.5°
Reaches altitude 10° 11:28:04 10° 237° (WSW) 2,610 5.6 -43.6°
Maximum altitude 11:30:18 12° 215° (SW) 2,467 5.6 -43.6°
Drops below altitude 10° 11:32:34 10° 193° (SSW) 2,616 5.8 -43.7°
Sets 11:37:03 0° 162° (SSE) 3,562 6.6 -43.9°
